COSMOS 2251 DEB, 33983

Orbit data source: Space-Track

COSMOS 2251 DEB, 33983 is space debris in LEO originally from a launch on Wed, 16 Jun 1993 UTC launched from the Plesetsk Missile And Space Complex (PKMTR). The debris from Iridium 33, an American commercial communications satellite, has been tracked extensively since its accidental collision with the defunct Russian satellite Cosmos 2251 in 2009. This event, occurring at high speed in low Earth orbit (LEO), generated thousands of pieces of space debris, significantly increasing the risk of further collisions. The Iridium 33 debris cloud has impacted space traffic management and orbital debris mitigation strategies, making it a subject of ongoing study in space situational awareness.

Loading next visibility...
Identifier
33983, 1993-036FS
Orbit
LEO
Country
Flag of CISCIS
Related business
Manufacturer
Unknown
Mission
Spacecraft
Bus & Motor
Unknown
Mass
Unknown
Launch date (UTC)
1993-06-16 (32 years ago)
Launch vehicle
Unknown
Launch site
Plesetsk Missile And Space Complex (PKMTR)
Object type
Payload
Rocket body
Debris
Shape & HBR
Unknown shape, 0.2 m
Radar Cross Section
Small (<0.1 m²)

Expand to show TLE details & history
Last TLE update: 5 hours ago

TLE from 5 hours ago
0 COSMOS 2251 DEB
1 33983U 93036FS  25299.84584117  .00002949  00000-0  75963-3 0  9999
2 33983  74.0507 235.0975 0021058 343.8583  78.3714 14.50401682879490
Epoch: 2025-10-26T20:18Z
TLE epoch observation values (Epoch: 2025-10-26T20:18:00.677Z)
Latitude
58.60343°
Longitude
-77.10268°
Altitude
730.907 km
Speed
7.497 km/s
True Right ascension
17h 31m 25s
True Declination
58° 26' 59"
Sunlit
Object was in daylight at epoch
Visualization orbit readout
Latitude
Unknown
Longitude
Unknown
Altitude
Unknown
Speed
Unknown
Apparent Right ascension
Unknown
Apparent Declination
Unknown
Sunlit
N/A
Visualization observer readout
Local Sidereal Time
20:10:19
Azimuth
Unknown
Elevation
Unknown
Doppler factor
Unknown
Orbital elements
Apogee altitude
736.895 km
Perigee altitude
706.992 km
Semi-major axis
7,100.081 km
Eccentricity
0.00211
Inclination
74.0507°
RAAN
235.0975°
Arg. of periapsis
343.8583°
True anomaly
78.60788°
Mean anomaly
78.3714°
Eccentric anomaly
78.48963°
Mean motion
3.62784 °/min
Orbital period
99.23 mins
BSTAR
0.00075963
Loading maneuver chart data...
Computing Atmospheric mass density...
Loading historical data...
Loading historical data...
Loading historical data...
Loading historical data...
Loading historical data...
Loading historical data...
Loading historical data...

Documentation

Showing up to 5 results
|